Location: *
(42.3442°N, 9.2072°E)
Time: 09:57:26
(UTC+00:00)

Cosmos 1174 - Pass Details

Date: 15 August 2020
Orbit: 363 x 1155 km, 66.1° (Epoch: 22 September)

Event Time Altitude Azimuth Distance (km) Brightness Sun altitude
Exits shadow 03:29:50 - 192° (SSW) 2,061 6.3 -11.0°
Reaches altitude 10° 03:30:32 10° 190° (S) 1,786 6.1 -10.9°
Maximum altitude 03:34:24 50° 114° (ESE) 797 4.9 -10.3°
Drops below altitude 10° 03:39:19 10° 40° (NE) 2,266 8.2 -9.5°
Sets 03:42:05 0° 36° (NE) 3,344 9.1 -9.0°
